Location: Allie Creek
(37.5926°N, 89.8526°W)
Time: 19:48:26
(UTC+00:00)

Cosmos 1707 Rocket - Pass Details

Date: 26 September 2023
Orbit: 601 x 630 km, 82.5° (Epoch: 08 December)

Event Time Altitude Azimuth Distance (km) Brightness Sun altitude
Rises 00:40:41 0° 349° (N) 2,916 7.3 -10.5°
Reaches altitude 10° 00:42:56 10° 347° (NNW) 2,008 6.5 -10.9°
Maximum altitude 00:47:20 65° 266° (W) 693 4.1 -11.8°
Drops below altitude 10° 00:51:44 10° 184° (S) 2,001 6.1 -12.6°
Sets 00:53:58 0° 182° (S) 2,904 6.9 -13.1°
